Kezdőlap
METAR-TAF:

METAR-TAF

Repülőterek :

Emporia Municipal Airport

Emporia, Kansas, Amerikai Egyesült Államok

földrajzi szélesség: 38-19-44N, földrajzi hosszúság: 096-11-38W, magasság: 367 m

Jelenlegi meteorológiai megfigyelések

A jelentés 27 perccel ezelõtt készült, 12:17 UTC
Kelet-délkeleti szél 3 kt
Hőmérséklet 22°C
Páratartalom 94%
Légköri nyomás 1024 hPa
Látótávolság: 0.4 km
köd

METAR: KEMP 201217Z AUTO 12003KT 1/4SM FG VV002 22/21 A3025 RMK AO2 T02170211

Idő: 07:44 (12:44 UTC)


TAF: hiányzik

Meteorológiai megfigyelések és előrejelzések több, mint 4000 repülőtéren (METAR és TAF jelentéseket).

A térképen piros és sárga pontok jelzik az elérhető meteorológiai állomásokat.

Mozgassa az egeret a pont fölött, hogy megjelenjen az állomás neve.

Azután kattintson az időjárási megfigyelések és előrejelzések megtekintéséhez.

A térkép megváltoztatása: kattintson a fekete keresztel jelölt zöld gombra ráközelítéshez, a vonallal jelölt zöld gombra távolításhoz, vagy a zöld nyilakra a szomszédos térképek eléréséhez.


METAR-TAF: